{"data":{"norad_id":52792,"epoch":"2026-05-25T04:15:50.223168Z","epoch_age_seconds":56396,"freshness":"FRESH","line1":"1 52792U 22058H   26145.17766462  .00001666  00000+0  23926-3 0  9992","line2":"2 52792  49.9947 307.8092 0020180 201.5347 158.4743 14.81286884216529","mean_motion":14.81286884,"eccentricity":0.002018,"inclination_deg":49.9947,"raan_deg":307.8092,"arg_perigee_deg":201.5347,"mean_anomaly_deg":158.4743,"bstar":0.00023926,"rev_number":21652,"period_min":97.212769218039,"perigee_km":611.13214319758,"apogee_km":639.39787370369,"semimajor_km":7003.4020084506,"source":"CELESTRAK","updated_at":"2026-05-25T13:37:57.890341Z"}}